KB8DLR Weather Reports


time (UTC)temp
F
wind
direction
speed
knots
gust
knots
rain 1hr
in
rain 24hr
in
rain mn
in
humidity
%
barometer
mb
20260506224030 59 4 0.9 1.7 0.00 0.70 0.31 62 1014.0
20260506223017 59 341 0.0 1.7 0.00 0.70 0.31 62 1013.9
20260506222020 60 40 0.9 1.7 0.00 0.70 0.31 60 1013.4
20260506221025 60 68 0.0 1.7 0.00 0.70 0.31 59 1013.0
20260506220029 61 13 0.9 1.7 0.00 0.70 0.31 59 1013.0
20260506215015 61 355 0.9 1.7 0.00 0.70 0.31 59 1012.9
20260506214019 62 5 0.9 1.7 0.00 0.70 0.31 58 1012.8
20260506213023 63 3 0.9 1.7 0.00 0.70 0.31 58 1012.7
20260506212029 62 354 0.9 1.7 0.00 0.70 0.31 59 1012.6
20260506211032 62 4 0.9 1.7 0.00 0.70 0.31 60 1012.5
20260506210018 64 325 0.9 1.7 0.00 0.70 0.31 58 1012.3
20260506205024 65 352 0.9 1.7 0.00 0.70 0.31 57 1012.3
20260506204026 66 356 0.9 2.6 0.00 0.70 0.31 56 1012.3
20260506203030 67 17 0.9 1.7 0.00 0.70 0.31 54 1012.3
20260506202017 67 329 0.9 1.7 0.00 0.70 0.31 55 1012.2
20260506201042 68 61 0.9 1.7 0.00 0.70 0.31 52 1012.3
20260506200025 72 13 0.9 1.7 0.00 0.70 0.31 49 1012.3
20260506195029 74 325 1.7 1.7 0.00 0.70 0.31 46 1012.3
20260506194036 73 347 0.9 3.5 0.00 0.70 0.31 49 1012.1
20260506193019 71 357 0.9 2.6 0.00 0.70 0.31 51 1012.0
20260506192044 71 350 0.9 2.6 0.00 0.70 0.31 52 1012.3
20260506191109 68 308 0.9 1.7 0.00 0.70 0.31 54 1012.2
20260506190046 68 339 1.7 1.7 0.00 0.70 0.31 53 1012.3
20260506185039 68 5 0.9 2.6 0.00 0.70 0.31 54 1012.5
20260506184022 67 7 1.7 2.6 0.00 0.70 0.31 53 1012.6
20260506183020 68 5 0.9 1.7 0.00 0.70 0.31 52 1012.6
20260506182019 69 10 1.7 1.7 0.00 0.70 0.31 52 1012.5
20260506181017 67 17 1.7 2.6 0.00 0.70 0.31 54 1012.6
20260506180035 66 14 1.7 2.6 0.00 0.70 0.31 53 1012.5
20260506175025 67 2 1.7 2.6 0.00 0.70 0.31 51 1012.7
20260506174029 68 34 0.9 1.7 0.00 0.70 0.31 55 1012.7
20260506173015 68 353 0.9 2.6 0.00 0.70 0.31 54 1012.6
20260506172020 67 33 0.9 1.7 0.00 0.70 0.31 54 1012.4
20260506171024 68 29 1.7 2.6 0.00 0.70 0.31 54 1012.5
20260506170028 70 20 1.7 2.6 0.00 0.70 0.31 56 1012.7
20260506165032 68 337 0.9 1.7 0.00 0.70 0.31 59 1012.8
20260506164018 68 19 0.9 1.7 0.00 0.70 0.31 61 1012.8
20260506163104 67 1 0.9 1.7 0.00 0.70 0.31 61 1012.4
20260506162027 67 359 0.9 2.6 0.00 0.70 0.31 63 1012.3
20260506161031 66 4 0.9 1.7 0.00 0.70 0.31 67 1012.5
20260506160017 67 348 0.9 1.7 0.00 0.70 0.31 67 1012.3
20260506155023 64 16 0.9 1.7 0.00 0.70 0.31 73 1012.3
20260506154026 62 358 0.9 1.7 0.00 0.70 0.31 77 1012.1
20260506153030 61 5 1.7 1.7 0.00 0.70 0.31 78 1011.8
20260506152016 59 266 0.9 1.7 0.00 0.70 0.31 82 1012.1
20260506151020 58 270 0.0 1.7 0.00 0.70 0.31 83 1012.0
20260506150024 57 14 0.9 1.7 0.00 0.70 0.31 85 1011.8
20260506145029 56 347 0.9 1.7 0.00 0.70 0.31 86 1011.8
20260506144015 57 315 0.9 1.7 0.00 0.70 0.31 88 1011.7
20260506143020 56 344 0.9 1.7 0.00 0.70 0.31 92 1011.5
20260506142023 55 358 0.9 1.7 0.00 0.70 0.31 91 1011.3
20260506141027 55 288 0.9 1.7 0.00 0.70 0.31 94 1011.2
20260506140032 54 348 0.9 1.7 0.00 0.70 0.31 96 1010.9
20260506135018 53 346 0.9 1.7 0.00 0.70 0.31 98 1010.8
20260506134022 52 322 0.9 1.7 0.00 0.70 0.31 99 1010.8
20260506133026 51 23 0.0 1.7 0.00 0.70 0.31 99 1010.8
20260506132025 50 20 0.9 1.7 0.00 0.70 0.31 99 1010.7
20260506131018 50 325 0.9 1.7 0.00 0.70 0.31 99 1010.7
20260506130021 50 0.0 0.0 0.00 0.70 0.31 99 1010.5
20260506125019 50 20 0.9 1.7 0.00 0.70 0.31 99 1010.3
20260506124018 49 15 0.9 1.7 0.00 0.70 0.31 99 1010.1
20260506123016 48 338 0.0 1.7 0.00 0.70 0.31 99 1009.8
20260506122021 47 0.0 0.9 0.00 0.70 0.31 99 1010.3
20260506121024 47 0 0.0 0.9 0.00 0.70 0.31 99 1009.8
20260506120027 47 9 0.0 1.7 0.00 0.70 0.31 99 1009.8
20260506115031 47 1 0.9 1.7 0.00 0.70 0.31 99 1009.7
20260506114039 47 18 0.9 1.7 0.00 0.70 0.31 99 1009.4
20260506113102 47 357 0.9 1.7 0.00 0.70 0.31 99 1009.1
20260506112026 47 11 0.9 1.7 0.00 0.70 0.31 99 1008.5
20260506111030 47 24 0.9 1.7 0.01 0.70 0.31 99 1008.7
20260506110017 47 27 0.9 1.7 0.01 0.70 0.31 99 1008.8
20260506105021 48 4 0.9 1.7 0.01 0.70 0.31 99 1008.7
20260506104025 48 0.0 0.0 0.01 0.70 0.31 99 1008.5
20260506103029 48 0.0 0.0 0.01 0.70 0.31 99 1008.2
20260506102035 47 0 0.0 0.9 0.01 0.70 0.31 99 1007.5
20260506101039 0 0.0 0.0 0.00 0.69 0.30 1007.6
20260506100023 0 0.0 0.0 0.01 0.69 0.30 1007.8
20260506095029 0 0.0 0.0 0.03 0.69 0.30 1007.7
20260506094032 0 0.0 0.0 0.04 0.69 0.30 1007.6
20260506093038 0 0.0 0.0 0.06 0.69 0.30 1007.6
20260506092205 0 0.0 0.0 0.08 0.69 0.30 1007.2
20260506091046 50 16 0.9 1.7 0.09 0.69 0.30 99 1007.4
20260506090030 50 0 0.0 1.7 0.08 0.68 0.29 99 1007.5
20260506085016 50 5 0.9 1.7 0.07 0.66 0.27 99 1007.4
20260506084021 51 4 0.9 1.7 0.06 0.65 0.26 99 1007.3
20260506083105 51 29 1.7 1.7 0.05 0.63 0.24 99 1007.2
20260506082029 51 351 1.7 1.7 0.04 0.61 0.22 99 1007.2
20260506081017 52 23 0.0 1.7 0.05 0.60 0.21 99 1006.8
20260506073020 53 356 0.0 1.7 0.11 0.58 0.19 99 1006.4
20260506072019 54 345 0.9 1.7 0.11 0.57 0.18 99 1006.4
20260506071038 56 21 0.9 1.7 0.10 0.55 0.16 99 1006.4
20260506062026 58 203 0.0 0.9 0.06 0.46 0.07 99 1006.4
20260506061031 58 0.0 0.0 0.05 0.45 0.06 99 1006.6
20260506051040 59 0.0 0.0 0.00 0.40 0.01 99 1007.3
20260506045028 59 0.0 0.0 0.01 0.40 0.01 99 1007.5
20260506044033 59 0.0 0.0 0.03 0.40 0.01 99 1007.6
20260506043019 59 0.0 0.0 0.06 0.40 0.01 99 1007.6
20260506042023 59 0.0 0.0 0.08 0.40 0.01 99 1007.5
20260506041027 59 0.0 0.0 0.10 0.40 0.01 99 1007.9
20260506040032 59 0.0 0.0 0.09 0.39 0.00 99 1008.1
20260506035017 59 158 0.0 1.7 0.11 0.39 0.39 99 1008.3
20260506034022 59 0.0 0.0 0.10 0.37 0.37 99 1008.5
20260506033026 59 0.0 0.0 0.09 0.34 0.34 99 1008.5
20260506032111 59 0.0 0.0 0.09 0.32 0.32 99 1008.4
20260506031017 59 0.0 0.0 0.08 0.30 0.30 99 1008.5
20260506030022 59 0.0 0.0 0.09 0.30 0.30 99 1008.4
20260506025105 59 0.0 0.0 0.08 0.28 0.28 99 1008.5
20260506024050 59 0.0 0.0 0.08 0.27 0.27 99 1008.5
20260506023017 59 0.0 0.0 0.06 0.25 0.25 99 1008.6
20260506022020 59 0.0 0.0 0.05 0.23 0.23 99 1008.4
20260506021024 59 0.0 0.0 0.04 0.22 0.22 99 1008.4
20260506020022 59 0.0 0.0 0.03 0.21 0.21 99 1008.4
20260506015020 60 0.0 0.0 0.02 0.20 0.20 99 1008.3
20260506014023 60 0.0 0.0 0.02 0.19 0.19 99 1008.2
20260506013037 60 0.0 0.0 0.02 0.19 0.19 99 1008.1
20260506012015 60 0.0 0.0 0.01 0.18 0.18 99 1008.1
20260506011031 60 0.0 0.0 0.01 0.18 0.18 99 1008.0
20260506010018 60 0.0 0.0 0.01 0.18 0.18 99 1008.2
20260506005022 60 0.0 0.0 0.01 0.18 0.18 99 1008.4
20260506004025 60 0.0 0.0 0.00 0.17 0.17 99 1008.4
20260506003030 60 0.0 0.0 0.00 0.17 0.17 99 1008.4
20260506002017 60 0.0 1.7 0.00 0.17 0.17 99 1008.4
20260506001020 60 0.0 0.0 0.00 0.17 0.17 99 1008.3
20260506000045 60 0.0 0.0 0.01 0.17 0.17 99 1008.3
20260505235030 61 0.0 0.0 0.03 0.17 0.17 99 1008.4
20260505234015 61 0.0 0.0 0.17 0.17 0.17 99 1008.4
20260505233019 61 0.0 0.0 0.17 0.17 0.17 99 1008.5
20260505232023 61 203 0.0 1.7 0.17 0.17 0.17 99 1008.6
20260505231027 62 0.0 0.0 0.17 0.17 0.17 99 1008.7
20260505230112 62 198 0.9 3.5 0.16 0.16 0.16 99 1008.9
20260505225018 65 331 0.9 1.7 0.14 0.14 0.14 98 1008.8